Regional Weather Roundup
Issued by NWS

Home | Current Version | Previous Version | Graphics & Text | Print | Product List | Glossary On
Versions: 1 2 3 4 5 6 7 8 9 10 11 12 13 14 15 16 17 18 19 20 21 22 23 24 25 26 27 28 29 30 31 32 33 34 35 36 37 38 39 40 41 42 43 44 45 46 47 48 49 50
000
ASUS43 KOAX 031810
RWRNE

WEATHER ROUNDUP FOR NEBRASKA
NATIONAL WEATHER SERVICE OMAHA NE
100 PM CDT SUN MAY 03 2015

NOTES: SATELLITE DATA IS BEING USED TO AUGMENT CLOUD COVER ABOVE
       12000 FEET.
       "FAIR" INDICATES FEW OR NO CLOUDS BELOW 12,000 FEET WITH NO
       SIGNIFICANT WEATHER AND/OR OBSTRUCTIONS TO VISIBILITY.

  * THESE STATIONS DO NOT REPORT WEATHER SUCH AS RAIN...SNOW OR FOG.

NEZ001>004-019>022-054>056-031900-
NEBRASKA PANHANDLE

CITY           SKY/WX    TMP DP  RH WIND       PRES   REMARKS
SCOTTSBLUFF    SUNNY     70  38  31 NE12G22   29.97R
6HR MIN TEMP:  48; 6HR MAX TEMP:  70;

ALLIANCE       SUNNY     68  40  35 N20G32    29.95R
6HR MIN TEMP:  43; 6HR MAX TEMP:  68;

CHADRON        MOSUNNY   66  40  38 NE21      29.98S
6HR MIN TEMP:  38; 6HR MAX TEMP:  66;

KIMBALL        MOSUNNY   68  40  35 N14G20    29.97R
SIDNEY         SUNNY     71  42  35 N16G24    29.95R
6HR MIN TEMP:  45; 6HR MAX TEMP:  71;

$$

NEZ057>060-069>072-079>082-031900-
SOUTHWEST NEBRASKA

CITY           SKY/WX    TMP DP  RH WIND       PRES   REMARKS
NORTH PLATTE   SUNNY     78  47  33 N15       29.82R
6HR MIN TEMP:  45; 6HR MAX TEMP:  78;

IMPERIAL       SUNNY     81  40  23 NW18G25   29.85S
6HR MIN TEMP:  53; 6HR MAX TEMP:  81;

LEXINGTON      SUNNY     82  47  28 SW6       29.78S
MCCOOK         SUNNY     85  45  24 W12G18    29.81F
6HR MIN TEMP:  51; 6HR MAX TEMP:  85;

OGALLALA       SUNNY     76  41  28 N18       29.88R
$$

NEZ005>010-023>029-035>040-094-031900-
NORTH CENTRAL NEBRASKA

CITY           SKY/WX    TMP DP  RH WIND       PRES   REMARKS
VALENTINE      SUNNY     71  38  29 NE28G35   29.89R
6HR MIN TEMP:  45; 6HR MAX TEMP:  71;

AINSWORTH      MOSUNNY   72  42  34 N24G35    29.87R
BROKEN BOW     SUNNY     85  47  26 W13G18    29.78R
6HR MIN TEMP:  57; 6HR MAX TEMP:  85;

O`NEILL        MOSUNNY   75  54  48 N21G29    29.79R
ORD            MOSUNNY   81  47  30 N9        29.75R
6HR MIN TEMP:  47; 6HR MAX TEMP:  82;

THEDFORD       SUNNY     72  44  35 N18G29    29.87R
$$

NEZ041-046>049-061>064-073>077-083>087-031900-
SOUTH CENTRAL NEBRASKA

CITY           SKY/WX    TMP DP  RH WIND       PRES   REMARKS
GRAND ISLAND   SUNNY     85  50  29 S7        29.75F
6HR MIN TEMP:  56; 6HR MAX TEMP:  86;

AURORA         SUNNY     86  44  23 SW10G16   29.75F
HASTINGS       SUNNY     86  45  23 SW6       29.75F
6HR MIN TEMP:  55; 6HR MAX TEMP:  86;

HEBRON         SUNNY     86  39  19 SW7       29.76S
HOLDREGE       SUNNY     82  42  24 W12G17    29.79S
KEARNEY *      SUNNY     82  45  26 W10G17    29.77S
YORK           MOSUNNY   86  46  25 SW9       29.75F
$$

NEZ011>018-030>034-042>045-031900-
NORTHEAST NEBRASKA

CITY           SKY/WX    TMP DP  RH WIND       PRES   REMARKS
NORFOLK        SUNNY     79  56  45 VRB3      29.75R
6HR MIN TEMP:  61; 6HR MAX TEMP:  80;

ALBION         MOSUNNY   79  52  39 CALM      29.75S
BLAIR          SUNNY     78  61  55 S10       29.76F
COLUMBUS *     MOSUNNY   79  57  47 NW5       29.76S
FREMONT        SUNNY     80  60  50 S7        29.75F
TEKAMAH        SUNNY     82  60  47 S12G23    29.74F
6HR MIN TEMP:  58; 6HR MAX TEMP:  82;

WAYNE          SUNNY     79  58  48 S7        29.75S
$$

NEZ050>053-065>068-078-088>093-031900-
SOUTHEAST NEBRASKA

CITY           SKY/WX    TMP DP  RH WIND       PRES   REMARKS
LINCOLN        TSTM      73  59  61 S8        29.75S
6HR MIN TEMP:  61; 6HR MAX TEMP:  79;

OMAHA EPPLEY   PTSUNNY   80  60  50 S12       29.75S
6HR MIN TEMP:  62; 6HR MAX TEMP:  80;

BEATRICE       MOSUNNY   80  59  49 S14       29.76S
FALLS CITY     SUNNY     77  58  51 S15       29.78S
6HR MIN TEMP:  59; 6HR MAX TEMP:  79;

NEBRASKA CITY  SUNNY     78  51  39 S13       29.77F
PLATTSMOUTH    SUNNY     80  55  42 S8G18     29.76F
$$

NEZ044-045-051>053-067-031900-
OMAHA AREA

CITY           SKY/WX    TMP DP  RH WIND       PRES   REMARKS
OMAHA EPPLEY   PTSUNNY   80  60  50 S12       29.75S
6HR MIN TEMP:  62; 6HR MAX TEMP:  80;

BLAIR          SUNNY     78  61  55 S10       29.76F
FREMONT        SUNNY     80  60  50 S7        29.75F
MILLARD        SUNNY     80  61  51 S10       29.75S
OFFUTT AFB     SUNNY     80  61  51 S8        29.75S
PLATTSMOUTH    SUNNY     80  55  42 S8G18     29.76F
WAHOO          FAIR      81  56  43 S12       29.75S
$$


USA.gov is the U.S. government's official web portal to all federal, state and local government web resources and services.